WBANNO,USDM_WEEK,LONGITUDE,LATITUDE,SMVWC_5_CM_MEAN,SMANOM_5_CM_MEAN,SMPERC_5_CM_30COUNTS,SMPERC_5_CM_70COUNTS,SMVWC_10_CM_MEAN,SMANOM_10_CM_MEAN,SMPERC_10_CM_30COUNTS,SMPERC_10_CM_70COUNTS,SMVWC_20_CM_MEAN,SMANOM_20_CM_MEAN,SMPERC_20_CM_30COUNTS,SMPERC_20_CM_70COUNTS,SMVWC_50_CM_MEAN,SMANOM_50_CM_MEAN,SMPERC_50_CM_30COUNTS,SMPERC_50_CM_70COUNTS,SMVWC_100_CM_MEAN,SMANOM_100_CM_MEAN,SMPERC_100_CM_30COUNTS,SMPERC_100_CM_70COUNTS,SMVWC_TOP_CM_MEAN,SMANOM_TOP_CM_MEAN,SMPERC_TOP_CM_30COUNTS,SMPERC_TOP_CM_70COUNTS,SMVWC_COLUMN_CM_MEAN,SMANOM_COLUMN_CM_MEAN,SMPERC_COLUMN_CM_30COUNTS,SMPERC_COLUMN_CM_70COUNTS
03739,20110416,-75.93,37.29,,,,,,,,,,,,,,,,,,,,,,,,,,,,
03739,20110417,-75.93,37.29,,,,,,,,,,,,,,,,,,,,,,,,,,,,
03739,20110418,-75.93,37.29,,,,,,,,,,,,,,,,,,,,,,,,,,,,
03739,20110419,-75.93,37.29,,,,,,,,,,,,,,,,,,,,,,,,,,,,
03739,20110420,-75.93,37.29,,,,,,,,,,,,,,,,,,,,,,,,,,,,
03739,20110421,-75.93,37.29,0.083,-1.49,1,0,0.104,-1.23,1,0,0.1,-1.1,1,0,0.189,-0.83,1,0,0.215,0.55,0.044,0.854,0.094,-1.39,1,0,0.138,-1.27,1,0
03739,20110422,-75.93,37.29,0.082,-1.49,1,0,0.104,-1.22,1,0,0.1,-1.1,1,0,0.189,-0.82,1,0,0.216,0.58,0.037,0.876,0.093,-1.39,1,0,0.138,-1.26,1,0
03739,20110423,-75.93,37.29,0.081,-1.49,1,0,0.104,-1.21,1,0,0.099,-1.09,1,0,0.189,-0.8,1,0,0.217,0.68,0,0.982,0.092,-1.39,1,0,0.138,-1.25,1,0
03739,20110424,-75.93,37.29,0.079,-1.49,1,0,0.104,-1.19,1,0,0.099,-1.07,1,0,0.189,-0.79,1,0,0.217,0.7,0,1,0.092,-1.39,1,0,0.138,-1.24,1,0
03739,20110425,-75.93,37.29,0.077,-1.5,1,0,0.104,-1.18,1,0,0.099,-1.06,1,0,0.189,-0.78,1,0,0.217,0.69,0,1,0.091,-1.39,1,0,0.137,-1.24,1,0
03739,20110426,-75.93,37.29,0.075,-1.51,1,0,0.103,-1.17,1,0,0.098,-1.06,1,0,0.189,-0.77,1,0,0.217,0.67,0,1,0.089,-1.39,1,0,0.136,-1.24,1,0
03739,20110427,-75.93,37.29,0.073,-1.52,1,0,0.102,-1.17,1,0,0.097,-1.07,1,0,0.189,-0.76,1,0,0.217,0.65,0,1,0.088,-1.4,1,0,0.136,-1.24,1,0
03739,20110428,-75.93,37.29,0.071,-1.53,1,0,0.101,-1.17,1,0,0.096,-1.07,1,0,0.189,-0.76,1,0,0.217,0.62,0,0.994,0.086,-1.41,1,0,0.135,-1.25,1,0
03739,20110429,-75.93,37.29,0.069,-1.54,1,0,0.1,-1.17,1,0,0.095,-1.08,1,0,0.188,-0.76,1,0,0.216,0.59,0,0.994,0.085,-1.41,1,0,0.134,-1.26,1,0
03739,20110430,-75.93,37.29,0.067,-1.54,1,0,0.099,-1.17,1,0,0.094,-1.09,1,0,0.188,-0.76,1,0,0.216,0.57,0,0.994,0.083,-1.4,1,0,0.133,-1.27,1,0
03739,20110501,-75.93,37.29,0.065,-1.54,1,0,0.098,-1.17,1,0,0.093,-1.09,1,0,0.188,-0.76,1,0,0.216,0.53,0,0.976,0.082,-1.39,1,0,0.132,-1.27,1,0
03739,20110502,-75.93,37.29,0.063,-1.55,1,0,0.097,-1.17,1,0,0.091,-1.1,1,0,0.188,-0.76,1,0,0.215,0.48,0,0.875,0.08,-1.39,1,0,0.131,-1.27,1,0
03739,20110503,-75.93,37.29,0.061,-1.56,1,0,0.096,-1.17,1,0,0.09,-1.12,1,0,0.187,-0.77,1,0,0.215,0.43,0,0.732,0.078,-1.39,1,0,0.13,-1.28,1,0
03739,20110504,-75.93,37.29,0.059,-1.57,1,0,0.095,-1.17,1,0,0.088,-1.13,1,0,0.187,-0.78,1,0,0.214,0.36,0,0.589,0.077,-1.39,1,0,0.129,-1.29,1,0
03739,20110505,-75.93,37.29,0.057,-1.58,1,0,0.093,-1.18,1,0,0.087,-1.14,1,0,0.186,-0.79,1,0,0.214,0.3,0,0.452,0.075,-1.4,1,0,0.127,-1.3,1,0
03739,20110506,-75.93,37.29,0.056,-1.6,1,0,0.092,-1.2,1,0,0.086,-1.16,1,0,0.185,-0.81,1,0,0.213,0.2,0,0.31,0.074,-1.41,1,0,0.126,-1.32,1,0
03739,20110507,-75.93,37.29,0.053,-1.63,1,0,0.09,-1.22,1,0,0.084,-1.18,1,0,0.184,-0.82,1,0,0.212,0.1,0,0.167,0.072,-1.44,1,0,0.125,-1.35,1,0
03739,20110508,-75.93,37.29,0.051,-1.66,1,0,0.089,-1.24,1,0,0.083,-1.21,1,0,0.184,-0.83,1,0,0.211,0.01,0.06,0.042,0.07,-1.47,1,0,0.124,-1.38,1,0
03739,20110509,-75.93,37.29,0.049,-1.7,1,0,0.088,-1.26,1,0,0.082,-1.25,1,0,0.183,-0.84,1,0,0.21,-0.07,0.101,0,0.069,-1.5,1,0,0.123,-1.41,1,0
03739,20110510,-75.93,37.29,0.047,-1.72,1,0,0.087,-1.28,1,0,0.082,-1.28,1,0,0.183,-0.85,1,0,0.209,-0.15,0.244,0,0.067,-1.52,1,0,0.121,-1.43,1,0
03739,20110511,-75.93,37.29,0.044,-1.75,1,0,0.086,-1.3,1,0,0.081,-1.32,1,0,0.182,-0.86,1,0,0.208,-0.23,0.387,0,0.065,-1.54,1,0,0.12,-1.46,1,0
03739,20110512,-75.93,37.29,0.042,-1.77,1,0,0.085,-1.32,1,0,0.08,-1.36,1,0,0.182,-0.85,1,0,0.207,-0.31,0.53,0,0.064,-1.57,1,0,0.119,-1.48,1,0
03739,20110513,-75.93,37.29,0.04,-1.8,1,0,0.085,-1.33,1,0,0.08,-1.4,1,0,0.182,-0.85,1,0,0.206,-0.38,0.673,0,0.062,-1.59,1,0,0.119,-1.51,1,0
03739,20110514,-75.93,37.29,0.038,-1.82,1,0,0.084,-1.34,1,0,0.079,-1.44,1,0,0.181,-0.85,1,0,0.206,-0.43,0.815,0,0.061,-1.61,1,0,0.118,-1.53,1,0
03739,20110515,-75.93,37.29,0.036,-1.83,1,0,0.083,-1.35,1,0,0.079,-1.47,1,0,0.181,-0.86,1,0,0.205,-0.48,0.899,0,0.06,-1.62,1,0,0.117,-1.55,1,0
03739,20110516,-75.93,37.29,0.035,-1.84,1,0,0.083,-1.35,1,0,0.078,-1.49,1,0,0.18,-0.86,1,0,0.204,-0.54,1,0,0.059,-1.62,1,0,0.116,-1.56,1,0
03739,20110517,-75.93,37.29,0.034,-1.83,1,0,0.082,-1.35,1,0,0.078,-1.5,1,0,0.18,-0.87,1,0,0.203,-0.59,1,0,0.058,-1.62,1,0,0.115,-1.56,1,0
03739,20110518,-75.93,37.29,0.033,-1.82,1,0,0.081,-1.35,1,0,0.077,-1.49,1,0,0.179,-0.87,1,0,0.202,-0.62,1,0,0.057,-1.61,1,0,0.115,-1.56,1,0
03739,20110519,-75.93,37.29,0.033,-1.79,1,0,0.08,-1.34,1,0,0.076,-1.49,1,0,0.179,-0.88,1,0,0.202,-0.64,1,0,0.056,-1.6,1,0,0.114,-1.55,1,0
03739,20110520,-75.93,37.29,0.033,-1.76,1,0,0.079,-1.32,1,0,0.075,-1.48,1,0,0.178,-0.89,1,0,0.201,-0.67,1,0,0.056,-1.57,1,0,0.113,-1.53,1,0
03739,20110521,-75.93,37.29,0.032,-1.73,1,0,0.078,-1.3,1,0,0.075,-1.47,1,0,0.178,-0.89,1,0,0.2,-0.7,1,0,0.055,-1.54,1,0,0.113,-1.5,1,0
03739,20110522,-75.93,37.29,0.033,-1.69,1,0,0.077,-1.28,1,0,0.074,-1.46,1,0,0.177,-0.91,1,0,0.199,-0.71,1,0,0.055,-1.51,1,0,0.112,-1.48,1,0
03739,20110523,-75.93,37.29,0.034,-1.66,1,0,0.076,-1.26,1,0,0.073,-1.46,1,0,0.177,-0.92,1,0,0.198,-0.72,1,0,0.055,-1.49,1,0,0.112,-1.45,1,0
03739,20110524,-75.93,37.29,0.034,-1.63,1,0,0.076,-1.24,1,0,0.072,-1.46,1,0,0.176,-0.94,1,0,0.198,-0.74,1,0,0.055,-1.46,1,0,0.111,-1.42,1,0
03739,20110525,-75.93,37.29,0.038,-1.57,1,0,0.076,-1.2,1,0,0.071,-1.45,1,0,0.175,-0.96,1,0,0.197,-0.76,1,0,0.057,-1.41,1,0,0.111,-1.38,1,0
03739,20110526,-75.93,37.29,0.041,-1.52,1,0,0.076,-1.17,1,0,0.071,-1.44,1,0,0.175,-0.96,1,0,0.196,-0.77,1,0,0.059,-1.37,1,0,0.112,-1.34,1,0
03739,20110527,-75.93,37.29,0.043,-1.48,1,0,0.077,-1.13,1,0,0.071,-1.42,1,0,0.174,-0.97,1,0,0.195,-0.79,1,0,0.06,-1.33,1,0,0.112,-1.3,1,0
03739,20110528,-75.93,37.29,0.045,-1.45,1,0,0.077,-1.1,1,0,0.07,-1.39,1,0,0.173,-0.97,1,0,0.194,-0.82,1,0,0.061,-1.29,1,0,0.112,-1.26,1,0
03739,20110529,-75.93,37.29,0.046,-1.42,1,0,0.077,-1.07,1,0,0.07,-1.35,1,0,0.173,-0.96,1,0,0.193,-0.83,1,0,0.061,-1.26,1,0,0.112,-1.22,1,0
03739,20110530,-75.93,37.29,0.046,-1.4,1,0,0.077,-1.05,1,0,0.07,-1.31,1,0,0.172,-0.95,1,0,0.192,-0.84,1,0,0.061,-1.24,1,0,0.111,-1.18,1,0
03739,20110531,-75.93,37.29,0.044,-1.38,1,0,0.077,-1.03,1,0,0.07,-1.28,1,0,0.172,-0.93,1,0,0.191,-0.85,1,0,0.061,-1.22,1,0,0.111,-1.15,1,0
03739,20110601,-75.93,37.29,0.04,-1.4,1,0,0.076,-1.03,1,0,0.069,-1.24,1,0,0.171,-0.92,1,0,0.19,-0.86,1,0,0.058,-1.23,1,0,0.109,-1.15,1,0
03739,20110602,-75.93,37.29,0.037,-1.4,1,0,0.074,-1.03,1,0,0.068,-1.21,1,0,0.17,-0.9,1,0,0.189,-0.87,1,0,0.056,-1.23,1,0,0.108,-1.14,1,0
03739,20110603,-75.93,37.29,0.034,-1.41,1,0,0.073,-1.03,1,0,0.068,-1.19,1,0,0.17,-0.88,1,0,0.188,-0.87,1,0,0.054,-1.24,1,0,0.107,-1.14,1,0
03739,20110604,-75.93,37.29,0.032,-1.42,1,0,0.071,-1.05,1,0,0.067,-1.17,1,0,0.169,-0.86,1,0,0.188,-0.87,1,0,0.052,-1.25,1,0,0.105,-1.15,1,0
03739,20110605,-75.93,37.29,0.031,-1.42,1,0,0.07,-1.06,1,0,0.065,-1.16,1,0,0.168,-0.84,1,0,0.186,-0.87,1,0,0.05,-1.26,1,0,0.104,-1.15,1,0
03739,20110606,-75.93,37.29,0.03,-1.43,1,0,0.068,-1.07,1,0,0.064,-1.15,1,0,0.167,-0.82,1,0,0.185,-0.87,1,0,0.049,-1.27,1,0,0.103,-1.17,1,0
03739,20110607,-75.93,37.29,0.029,-1.44,1,0,0.066,-1.09,1,0,0.063,-1.14,1,0,0.166,-0.8,1,0,0.184,-0.86,1,0,0.048,-1.28,1,0,0.102,-1.18,1,0
03739,20110608,-75.93,37.29,0.028,-1.45,1,0,0.065,-1.1,1,0,0.062,-1.15,1,0,0.164,-0.78,1,0,0.182,-0.87,1,0,0.047,-1.29,1,0,0.1,-1.2,1,0
03739,20110609,-75.93,37.29,0.027,-1.47,1,0,0.064,-1.12,1,0,0.061,-1.15,1,0,0.163,-0.76,1,0,0.181,-0.87,1,0,0.045,-1.31,1,0,0.099,-1.21,1,0
03739,20110610,-75.93,37.29,0.026,-1.49,1,0,0.063,-1.13,1,0,0.06,-1.17,1,0,0.162,-0.74,1,0,0.179,-0.86,1,0,0.044,-1.33,1,0,0.098,-1.23,1,0
03739,20110611,-75.93,37.29,0.029,-1.45,1,0,0.062,-1.14,1,0,0.059,-1.19,1,0,0.161,-0.73,1,0,0.178,-0.85,1,0,0.046,-1.32,1,0,0.098,-1.23,1,0
03739,20110612,-75.93,37.29,0.046,-1.26,0.935,0.065,0.071,-1.02,0.94,0.054,0.062,-1.15,0.952,0,0.16,-0.72,1,0,0.176,-0.84,1,0,0.058,-1.17,0.935,0.06,0.103,-1.14,0.935,0
03739,20110613,-75.93,37.29,0.063,-1.06,0.81,0.071,0.085,-0.8,0.798,0.113,0.072,-1,0.81,0,0.159,-0.7,1,0,0.175,-0.82,1,0,0.074,-0.96,0.792,0.083,0.111,-0.99,0.792,0
03739,20110614,-75.93,37.29,0.073,-0.92,0.81,0.071,0.096,-0.64,0.655,0.113,0.079,-0.89,0.732,0,0.159,-0.69,1,0,0.173,-0.8,1,0,0.085,-0.81,0.702,0.083,0.116,-0.88,0.774,0
03739,20110615,-75.93,37.29,0.082,-0.8,0.81,0.071,0.104,-0.5,0.512,0.113,0.085,-0.79,0.732,0,0.158,-0.68,1,0,0.172,-0.77,1,0,0.093,-0.69,0.702,0.083,0.12,-0.79,0.774,0
03739,20110616,-75.93,37.29,0.089,-0.68,0.81,0.071,0.112,-0.38,0.369,0.113,0.091,-0.69,0.732,0,0.157,-0.67,1,0,0.171,-0.74,1,0,0.1,-0.56,0.702,0.083,0.124,-0.7,0.774,0
03739,20110617,-75.93,37.29,0.095,-0.56,0.81,0.071,0.118,-0.26,0.25,0.113,0.096,-0.59,0.732,0,0.157,-0.66,1,0,0.17,-0.72,1,0,0.107,-0.44,0.702,0.083,0.127,-0.6,0.774,0
03739,20110618,-75.93,37.29,0.096,-0.5,0.81,0.071,0.124,-0.15,0.19,0.113,0.101,-0.49,0.732,0,0.156,-0.64,1,0,0.169,-0.69,1,0,0.11,-0.35,0.702,0.083,0.129,-0.52,0.774,0
03739,20110619,-75.93,37.29,0.084,-0.59,0.875,0.006,0.12,-0.17,0.244,0.06,0.102,-0.45,0.78,0,0.156,-0.62,1,0,0.168,-0.66,1,0,0.102,-0.41,0.768,0.024,0.126,-0.53,0.839,0
03739,20110620,-75.93,37.29,0.071,-0.7,1,0,0.11,-0.28,0.387,0,0.096,-0.52,0.923,0,0.156,-0.6,1,0,0.167,-0.64,1,0,0.09,-0.51,0.911,0,0.12,-0.6,0.982,0
03739,20110621,-75.93,37.29,0.071,-0.66,0.875,0,0.106,-0.31,0.423,0,0.092,-0.55,1,0,0.156,-0.57,1,0,0.166,-0.61,1,0,0.088,-0.5,0.875,0,0.118,-0.58,0.946,0
03739,20110622,-75.93,37.29,0.071,-0.62,0.857,0,0.104,-0.31,0.423,0,0.089,-0.57,1,0,0.156,-0.55,1,0,0.166,-0.59,1,0,0.087,-0.48,0.786,0,0.117,-0.56,0.946,0
03739,20110623,-75.93,37.29,0.07,-0.61,0.857,0,0.102,-0.3,0.423,0,0.087,-0.58,1,0,0.156,-0.52,1,0,0.165,-0.57,0.958,0,0.086,-0.47,0.786,0,0.116,-0.54,0.946,0
03739,20110624,-75.93,37.29,0.069,-0.61,0.857,0,0.101,-0.31,0.47,0,0.086,-0.58,1,0,0.156,-0.49,1,0,0.164,-0.54,0.917,0,0.085,-0.48,0.786,0,0.115,-0.54,0.946,0
03739,20110625,-75.93,37.29,0.067,-0.61,0.857,0,0.099,-0.31,0.53,0,0.084,-0.58,1,0,0.156,-0.46,0.988,0,0.164,-0.52,0.887,0,0.083,-0.48,0.786,0,0.114,-0.53,0.946,0
03739,20110626,-75.93,37.29,0.065,-0.61,0.857,0,0.098,-0.31,0.536,0,0.082,-0.59,1,0,0.156,-0.43,0.988,0,0.163,-0.51,0.833,0,0.082,-0.49,0.786,0,0.113,-0.53,0.946,0
03739,20110627,-75.93,37.29,0.067,-0.58,0.833,0.018,0.097,-0.31,0.524,0,0.081,-0.6,1,0,0.156,-0.4,0.958,0,0.162,-0.49,0.78,0,0.082,-0.47,0.762,0.006,0.113,-0.53,0.929,0
03739,20110628,-75.93,37.29,0.071,-0.51,0.815,0.065,0.102,-0.21,0.488,0.137,0.081,-0.58,1,0,0.156,-0.37,0.887,0,0.162,-0.46,0.673,0,0.087,-0.39,0.744,0.065,0.114,-0.48,0.839,0
03739,20110629,-75.93,37.29,0.077,-0.42,0.69,0.113,0.106,-0.13,0.488,0.208,0.082,-0.54,0.899,0,0.157,-0.34,0.756,0,0.162,-0.44,0.536,0,0.092,-0.3,0.69,0.113,0.117,-0.42,0.696,0
03739,20110630,-75.93,37.29,0.087,-0.29,0.548,0.173,0.112,-0.01,0.488,0.351,0.084,-0.47,0.756,0,0.157,-0.32,0.613,0,0.161,-0.42,0.435,0,0.099,-0.16,0.548,0.208,0.12,-0.33,0.554,0
03739,20110701,-75.93,37.29,0.093,-0.19,0.405,0.173,0.117,0.09,0.417,0.429,0.086,-0.39,0.613,0,0.157,-0.29,0.47,0,0.161,-0.39,0.333,0,0.105,-0.06,0.405,0.208,0.123,-0.26,0.411,0
03739,20110702,-75.93,37.29,0.098,-0.11,0.268,0.173,0.12,0.17,0.274,0.429,0.089,-0.32,0.47,0,0.156,-0.27,0.339,0,0.16,-0.36,0.22,0,0.109,0.02,0.262,0.208,0.125,-0.2,0.268,0
03739,20110703,-75.93,37.29,0.102,-0.04,0.256,0.173,0.123,0.24,0.131,0.429,0.091,-0.25,0.327,0,0.156,-0.24,0.196,0,0.16,-0.34,0.131,0,0.113,0.1,0.119,0.208,0.127,-0.14,0.125,0
03739,20110704,-75.93,37.29,0.107,0.03,0.244,0.185,0.125,0.32,0,0.44,0.094,-0.18,0.185,0,0.157,-0.21,0.083,0,0.16,-0.31,0.042,0,0.116,0.17,0,0.226,0.128,-0.09,0,0
03739,20110705,-75.93,37.29,0.11,0.12,0.244,0.28,0.125,0.36,0,0.446,0.096,-0.12,0.042,0,0.157,-0.18,0.012,0,0.16,-0.28,0.006,0,0.118,0.24,0,0.31,0.129,-0.04,0,0.06
03739,20110706,-75.93,37.29,0.112,0.19,0.244,0.375,0.128,0.45,0,0.518,0.098,-0.04,0,0.095,0.157,-0.14,0,0,0.16,-0.26,0,0,0.12,0.33,0,0.405,0.131,0.03,0,0.202
03739,20110707,-75.93,37.29,0.116,0.3,0.244,0.458,0.132,0.55,0,0.518,0.101,0.04,0,0.238,0.158,-0.11,0,0,0.159,-0.24,0,0,0.124,0.43,0,0.452,0.133,0.1,0,0.345
03739,20110708,-75.93,37.29,0.122,0.42,0.244,0.601,0.138,0.7,0,0.583,0.105,0.17,0,0.381,0.159,-0.07,0,0,0.159,-0.22,0,0,0.13,0.57,0,0.595,0.137,0.21,0,0.488
03739,20110709,-75.93,37.29,0.138,0.69,0.238,0.744,0.149,0.93,0,0.726,0.114,0.4,0,0.524,0.161,0,0,0.03,0.159,-0.21,0,0,0.143,0.82,0,0.738,0.144,0.41,0,0.631
03739,20110710,-75.93,37.29,0.155,0.97,0.107,0.887,0.166,1.27,0,0.869,0.129,0.79,0,0.667,0.17,0.28,0,0.173,0.159,-0.19,0,0,0.16,1.13,0,0.881,0.156,0.72,0,0.774
03739,20110711,-75.93,37.29,0.165,1.15,0,1,0.18,1.55,0,1,0.143,1.14,0,0.81,0.178,0.55,0,0.315,0.159,-0.16,0,0,0.173,1.36,0,1,0.165,0.97,0,0.917
03739,20110712,-75.93,37.29,0.162,1.12,0,1,0.185,1.67,0,1,0.153,1.42,0,0.952,0.186,0.8,0,0.458,0.16,-0.12,0,0,0.173,1.4,0,1,0.169,1.1,0,1
03739,20110713,-75.93,37.29,0.157,1.07,0,0.929,0.185,1.68,0,1,0.159,1.59,0,1,0.194,1.03,0,0.601,0.162,-0.07,0,0,0.171,1.38,0,1,0.171,1.16,0,1
03739,20110714,-75.93,37.29,0.147,0.92,0,0.786,0.18,1.61,0,1,0.161,1.66,0,1,0.2,1.23,0,0.744,0.165,0.01,0,0,0.164,1.26,0,1,0.171,1.16,0,1
03739,20110715,-75.93,37.29,0.139,0.8,0,0.643,0.174,1.5,0,1,0.16,1.64,0,1,0.206,1.41,0,0.887,0.167,0.09,0,0,0.156,1.14,0,0.869,0.169,1.13,0,1
03739,20110716,-75.93,37.29,0.122,0.55,0,0.5,0.163,1.31,0,0.994,0.154,1.51,0,1,0.211,1.54,0,1,0.171,0.19,0,0,0.143,0.92,0,0.726,0.164,1.01,0,0.946
03739,20110717,-75.93,37.29,0.105,0.3,0,0.357,0.147,1.01,0,0.851,0.141,1.2,0,0.958,0.207,1.44,0,1,0.174,0.29,0,0.036,0.126,0.64,0,0.583,0.155,0.78,0,0.804
03739,20110718,-75.93,37.29,0.091,0.09,0.036,0.214,0.133,0.75,0,0.708,0.129,0.92,0,0.815,0.204,1.33,0,1,0.177,0.39,0,0.179,0.112,0.4,0,0.44,0.147,0.58,0,0.661
03739,20110719,-75.93,37.29,0.081,-0.07,0.179,0.071,0.121,0.54,0,0.565,0.119,0.66,0,0.673,0.2,1.22,0,1,0.18,0.48,0,0.321,0.101,0.21,0,0.298,0.14,0.42,0,0.518
03739,20110720,-75.93,37.29,0.073,-0.18,0.321,0,0.113,0.38,0,0.423,0.111,0.47,0,0.53,0.197,1.11,0,1,0.182,0.56,0,0.464,0.093,0.08,0,0.155,0.135,0.29,0,0.375
03739,20110721,-75.93,37.29,0.066,-0.27,0.464,0,0.105,0.26,0,0.28,0.105,0.32,0,0.387,0.194,1.02,0,1,0.184,0.63,0,0.607,0.086,-0.03,0.006,0.012,0.131,0.19,0,0.232
03739,20110722,-75.93,37.29,0.059,-0.35,0.607,0,0.099,0.15,0,0.137,0.099,0.2,0,0.244,0.191,0.94,0,1,0.185,0.69,0,0.75,0.079,-0.12,0.125,0,0.127,0.1,0,0.089
03739,20110723,-75.93,37.29,0.054,-0.43,0.75,0,0.093,0.05,0,0,0.093,0.09,0,0.101,0.188,0.86,0,1,0.185,0.72,0,0.893,0.073,-0.2,0.262,0,0.122,0.01,0,0
03739,20110724,-75.93,37.29,0.048,-0.49,0.893,0,0.087,-0.04,0,0,0.087,-0.01,0,0,0.185,0.78,0,0.97,0.185,0.72,0,0.994,0.067,-0.28,0.405,0,0.118,-0.08,0,0
03739,20110725,-75.93,37.29,0.044,-0.55,1,0,0.082,-0.12,0.048,0,0.082,-0.1,0.107,0,0.181,0.69,0,0.827,0.183,0.7,0,0.875,0.063,-0.34,0.548,0,0.114,-0.17,0.071,0
03739,20110726,-75.93,37.29,0.041,-0.58,1,0,0.077,-0.19,0.19,0,0.078,-0.17,0.25,0,0.178,0.6,0,0.685,0.181,0.66,0,0.732,0.059,-0.39,0.69,0,0.111,-0.24,0.167,0
03739,20110727,-75.93,37.29,0.041,-0.58,1,0,0.073,-0.25,0.333,0,0.074,-0.23,0.393,0,0.174,0.52,0,0.542,0.179,0.61,0,0.589,0.057,-0.42,0.833,0,0.108,-0.29,0.238,0
03739,20110728,-75.93,37.29,0.04,-0.59,1,0,0.07,-0.3,0.476,0,0.07,-0.29,0.536,0,0.171,0.43,0,0.399,0.176,0.54,0,0.446,0.055,-0.45,0.97,0,0.105,-0.35,0.381,0
03739,20110729,-75.93,37.29,0.039,-0.6,1,0,0.068,-0.34,0.619,0,0.068,-0.33,0.679,0,0.168,0.35,0,0.256,0.173,0.47,0,0.304,0.053,-0.48,0.994,0,0.103,-0.4,0.524,0
03739,20110730,-75.93,37.29,0.038,-0.61,1,0,0.066,-0.37,0.762,0,0.065,-0.37,0.821,0,0.164,0.26,0,0.113,0.17,0.39,0,0.161,0.052,-0.5,1,0,0.101,-0.44,0.667,0
03739,20110731,-75.93,37.29,0.038,-0.62,1,0,0.064,-0.4,0.905,0,0.064,-0.4,0.964,0,0.162,0.19,0,0,0.167,0.32,0,0.024,0.051,-0.52,1,0,0.099,-0.48,0.81,0
03739,20110801,-75.93,37.29,0.037,-0.62,1,0,0.063,-0.42,1,0,0.062,-0.42,1,0,0.159,0.12,0,0,0.165,0.26,0,0,0.05,-0.53,1,0,0.097,-0.51,0.881,0
03739,20110802,-75.93,37.29,0.036,-0.64,1,0,0.062,-0.43,1,0,0.061,-0.44,1,0,0.157,0.06,0,0,0.162,0.2,0,0,0.049,-0.55,1,0,0.096,-0.54,0.929,0
03739,20110803,-75.93,37.29,0.033,-0.68,1,0,0.061,-0.45,1,0,0.06,-0.46,1,0,0.155,-0.01,0,0,0.16,0.13,0,0,0.047,-0.58,1,0,0.093,-0.58,1,0
03739,20110804,-75.93,37.29,0.03,-0.71,1,0,0.059,-0.46,1,0,0.058,-0.48,1,0,0.152,-0.06,0.042,0,0.157,0.06,0,0,0.045,-0.61,1,0,0.092,-0.61,1,0
03739,20110805,-75.93,37.29,0.029,-0.74,1,0,0.058,-0.49,1,0,0.057,-0.5,1,0,0.151,-0.12,0.167,0,0.155,0,0,0,0.043,-0.63,1,0,0.09,-0.63,1,0
03739,20110806,-75.93,37.29,0.027,-0.76,1,0,0.057,-0.51,1,0,0.056,-0.53,1,0,0.149,-0.17,0.31,0,0.153,-0.06,0.03,0,0.042,-0.66,1,0,0.088,-0.66,1,0
03739,20110807,-75.93,37.29,0.026,-0.79,1,0,0.056,-0.53,1,0,0.055,-0.55,1,0,0.148,-0.21,0.452,0,0.151,-0.11,0.149,0,0.041,-0.68,1,0,0.087,-0.68,1,0
03739,20110808,-75.93,37.29,0.027,-0.8,1,0,0.055,-0.55,1,0,0.054,-0.57,1,0,0.146,-0.25,0.595,0,0.15,-0.16,0.286,0,0.041,-0.7,1,0,0.086,-0.69,1,0
03739,20110809,-75.93,37.29,0.027,-0.81,1,0,0.054,-0.57,1,0,0.053,-0.58,1,0,0.145,-0.29,0.738,0,0.148,-0.21,0.429,0,0.041,-0.72,1,0,0.086,-0.7,1,0
03739,20110810,-75.93,37.29,0.027,-0.83,1,0,0.054,-0.6,1,0,0.053,-0.6,1,0,0.144,-0.32,0.881,0,0.147,-0.25,0.571,0,0.04,-0.74,1,0,0.085,-0.72,1,0
03739,20110811,-75.93,37.29,0.027,-0.85,1,0,0.053,-0.62,1,0,0.052,-0.61,1,0,0.143,-0.35,0.982,0,0.145,-0.31,0.714,0,0.04,-0.76,1,0,0.084,-0.73,1,0
03739,20110812,-75.93,37.29,0.026,-0.87,1,0,0.053,-0.64,1,0,0.051,-0.63,1,0,0.141,-0.38,1,0,0.143,-0.38,0.857,0,0.04,-0.78,1,0,0.083,-0.74,1,0
03739,20110813,-75.93,37.29,0.026,-0.89,1,0,0.052,-0.66,1,0,0.051,-0.65,1,0,0.139,-0.41,1,0,0.14,-0.43,0.97,0,0.039,-0.8,1,0,0.082,-0.76,1,0
03739,20110814,-75.93,37.29,0.025,-0.91,1,0,0.051,-0.69,1,0,0.05,-0.67,1,0,0.138,-0.45,1,0,0.138,-0.49,0.994,0,0.038,-0.82,1,0,0.08,-0.78,1,0
03739,20110815,-75.93,37.29,0.024,-0.94,1,0,0.05,-0.71,1,0,0.049,-0.7,1,0,0.136,-0.48,1,0,0.136,-0.53,1,0,0.037,-0.85,1,0,0.079,-0.8,1,0
03739,20110816,-75.93,37.29,0.023,-0.95,1,0,0.049,-0.74,1,0,0.048,-0.73,1,0,0.135,-0.5,1,0,0.134,-0.57,1,0,0.036,-0.87,1,0,0.078,-0.81,1,0
03739,20110817,-75.93,37.29,0.022,-0.96,1,0,0.048,-0.75,1,0,0.047,-0.75,1,0,0.133,-0.52,1,0,0.133,-0.6,1,0,0.035,-0.88,1,0,0.077,-0.82,1,0
03739,20110818,-75.93,37.29,0.021,-0.97,1,0,0.047,-0.77,1,0,0.046,-0.77,1,0,0.132,-0.54,1,0,0.132,-0.62,1,0,0.034,-0.89,1,0,0.076,-0.82,1,0
03739,20110819,-75.93,37.29,0.021,-0.97,1,0,0.047,-0.77,1,0,0.046,-0.79,1,0,0.131,-0.56,1,0,0.13,-0.64,1,0,0.034,-0.89,1,0,0.075,-0.82,1,0
03739,20110820,-75.93,37.29,0.02,-0.97,1,0,0.046,-0.77,1,0,0.045,-0.8,1,0,0.131,-0.57,1,0,0.129,-0.65,1,0,0.033,-0.89,1,0,0.074,-0.82,1,0
03739,20110821,-75.93,37.29,0.032,-0.85,0.881,0,0.052,-0.71,0.899,0,0.045,-0.8,1,0,0.13,-0.58,1,0,0.129,-0.66,1,0,0.042,-0.79,0.881,0,0.078,-0.76,1,0
03739,20110822,-75.93,37.29,0.043,-0.74,0.738,0,0.059,-0.63,0.756,0,0.046,-0.79,1,0,0.13,-0.59,1,0,0.128,-0.68,1,0,0.051,-0.7,0.738,0,0.081,-0.71,1,0
03739,20110823,-75.93,37.29,0.052,-0.66,0.702,0,0.066,-0.56,0.613,0,0.047,-0.78,1,0,0.129,-0.59,1,0,0.127,-0.69,1,0,0.059,-0.62,0.613,0,0.084,-0.66,1,0
03739,20110824,-75.93,37.29,0.058,-0.6,0.702,0,0.072,-0.5,0.47,0,0.049,-0.76,1,0,0.129,-0.6,1,0,0.127,-0.7,1,0,0.065,-0.56,0.601,0,0.087,-0.63,1,0
03739,20110825,-75.93,37.29,0.064,-0.55,0.702,0,0.077,-0.46,0.429,0,0.051,-0.74,1,0,0.129,-0.6,1,0,0.127,-0.7,1,0,0.07,-0.51,0.601,0,0.089,-0.6,1,0
03739,20110826,-75.93,37.29,0.068,-0.51,0.702,0,0.081,-0.42,0.429,0,0.053,-0.72,1,0,0.129,-0.6,1,0,0.127,-0.69,1,0,0.074,-0.47,0.601,0,0.091,-0.58,1,0
03739,20110827,-75.93,37.29,0.073,-0.46,0.69,0.006,0.084,-0.39,0.423,0,0.055,-0.7,1,0,0.129,-0.59,1,0,0.127,-0.68,1,0,0.079,-0.43,0.589,0,0.094,-0.56,0.988,0
03739,20110828,-75.93,37.29,0.094,-0.27,0.667,0.149,0.107,-0.18,0.381,0.137,0.078,-0.45,0.869,0.119,0.142,-0.37,0.887,0.107,0.134,-0.51,0.929,0.065,0.1,-0.23,0.565,0.143,0.111,-0.35,0.845,0.119
03739,20110829,-75.93,37.29,0.108,-0.14,0.667,0.292,0.124,-0.01,0.381,0.28,0.099,-0.23,0.726,0.262,0.157,-0.13,0.744,0.25,0.15,-0.16,0.786,0.208,0.116,-0.08,0.565,0.286,0.128,-0.14,0.702,0.262
03739,20110830,-75.93,37.29,0.122,-0.02,0.56,0.327,0.139,0.13,0.381,0.423,0.117,-0.03,0.583,0.405,0.171,0.1,0.601,0.393,0.166,0.17,0.643,0.351,0.13,0.05,0.548,0.429,0.143,0.05,0.56,0.405
03739,20110831,-75.93,37.29,0.135,0.11,0.417,0.339,0.153,0.27,0.381,0.565,0.134,0.16,0.44,0.548,0.184,0.32,0.458,0.536,0.182,0.49,0.5,0.494,0.144,0.18,0.417,0.548,0.158,0.23,0.417,0.548
03739,20110901,-75.93,37.29,0.148,0.22,0.274,0.339,0.166,0.39,0.28,0.679,0.149,0.32,0.298,0.69,0.197,0.52,0.315,0.679,0.197,0.79,0.357,0.637,0.157,0.3,0.274,0.548,0.171,0.4,0.274,0.69
03739,20110902,-75.93,37.29,0.159,0.32,0.131,0.339,0.178,0.5,0.137,0.679,0.162,0.47,0.155,0.702,0.209,0.72,0.173,0.821,0.212,1.06,0.214,0.78,0.169,0.41,0.131,0.548,0.184,0.56,0.131,0.833
03739,20110903,-75.93,37.29,0.169,0.41,0,0.333,0.188,0.61,0,0.679,0.174,0.6,0.012,0.702,0.221,0.9,0.03,0.964,0.227,1.33,0.071,0.923,0.179,0.5,0,0.548,0.196,0.71,0,0.869
03739,20110904,-75.93,37.29,0.149,0.23,0,0.19,0.173,0.47,0,0.542,0.164,0.5,0,0.583,0.22,0.85,0,1,0.235,1.44,0,1,0.161,0.34,0,0.405,0.188,0.6,0,0.75
03739,20110905,-75.93,37.29,0.135,0.11,0,0.048,0.16,0.34,0,0.399,0.154,0.39,0,0.44,0.216,0.76,0,1,0.234,1.35,0,1,0.148,0.22,0,0.262,0.18,0.49,0,0.607
03739,20110906,-75.93,37.29,0.124,0.01,0,0.012,0.149,0.23,0,0.256,0.145,0.3,0,0.298,0.213,0.67,0,1,0.233,1.27,0,1,0.137,0.12,0,0.119,0.173,0.39,0,0.464
03739,20110907,-75.93,37.29,0.116,-0.07,0,0,0.139,0.14,0,0.113,0.136,0.21,0,0.155,0.211,0.59,0,0.976,0.232,1.19,0,1,0.128,0.03,0,0,0.167,0.31,0,0.321
03739,20110908,-75.93,37.29,0.111,-0.12,0,0,0.132,0.06,0,0,0.13,0.13,0,0.012,0.209,0.5,0,0.845,0.232,1.11,0,1,0.122,-0.03,0,0,0.163,0.24,0,0.179
03739,20110909,-75.93,37.29,0.108,-0.16,0,0,0.127,0,0,0,0.124,0.07,0,0,0.207,0.43,0,0.702,0.231,1.03,0,1,0.117,-0.08,0,0,0.159,0.18,0,0.036
03739,20110910,-75.93,37.29,0.105,-0.19,0,0,0.123,-0.04,0,0,0.12,0.01,0,0,0.205,0.36,0,0.56,0.231,0.93,0,1,0.114,-0.12,0,0,0.157,0.13,0,0
03739,20110911,-75.93,37.29,0.103,-0.21,0,0,0.12,-0.08,0,0,0.117,-0.04,0,0,0.204,0.31,0,0.417,0.23,0.84,0,1,0.111,-0.15,0,0,0.154,0.09,0,0
03739,20110912,-75.93,37.29,0.1,-0.23,0,0,0.117,-0.12,0,0,0.114,-0.08,0,0,0.202,0.26,0,0.274,0.229,0.76,0,1,0.109,-0.18,0,0,0.152,0.05,0,0
03739,20110913,-75.93,37.29,0.098,-0.26,0,0,0.114,-0.15,0,0,0.111,-0.12,0,0,0.201,0.22,0,0.131,0.228,0.68,0,1,0.106,-0.21,0,0,0.15,0.01,0,0
03739,20110914,-75.93,37.29,0.093,-0.3,0.107,0,0.111,-0.18,0,0,0.109,-0.15,0,0,0.199,0.19,0,0.012,0.227,0.61,0,1,0.102,-0.24,0,0,0.148,-0.03,0,0
03739,20110915,-75.93,37.29,0.088,-0.34,0.25,0,0.107,-0.22,0,0,0.106,-0.18,0,0,0.198,0.16,0,0,0.226,0.55,0,1,0.098,-0.28,0.012,0,0.145,-0.07,0,0
03739,20110916,-75.93,37.29,0.082,-0.39,0.393,0,0.103,-0.26,0,0,0.103,-0.22,0,0,0.196,0.13,0,0,0.225,0.51,0,1,0.093,-0.32,0.137,0,0.142,-0.12,0,0
03739,20110917,-75.93,37.29,0.078,-0.43,0.536,0,0.099,-0.3,0.036,0,0.099,-0.25,0,0,0.195,0.1,0,0,0.224,0.49,0,1,0.089,-0.37,0.28,0,0.139,-0.16,0,0
03739,20110918,-75.93,37.29,0.094,-0.3,0.548,0.113,0.111,-0.2,0.054,0.101,0.107,-0.18,0,0.095,0.195,0.08,0,0.024,0.223,0.47,0,1,0.103,-0.25,0.292,0.107,0.146,-0.09,0,0.101
03739,20110919,-75.93,37.29,0.111,-0.17,0.548,0.256,0.126,-0.07,0.054,0.244,0.12,-0.06,0,0.238,0.196,0.08,0,0.024,0.222,0.44,0,1,0.119,-0.12,0.292,0.25,0.155,0,0,0.244
03739,20110920,-75.93,37.29,0.127,-0.05,0.548,0.351,0.141,0.05,0.054,0.387,0.132,0.04,0,0.381,0.196,0.08,0,0.024,0.221,0.42,0,1,0.134,0,0.292,0.393,0.163,0.08,0,0.387